Location: Ash Swamp
(41.5170°N, 74.6157°W)
Time: 17:20:08
(UTC+00:00)

RESURS DK-1 - Pass Details

Date: 14 July 2020
Orbit: 556 x 562 km, 69.9° (Epoch: 04 August)

Event Time Altitude Azimuth Distance (km) Brightness Sun altitude
Rises 03:07:40 0° 346° (NNW) 2,753 7.2 -21.3°
Reaches altitude 10° 03:10:16 10° 2° (N) 1,854 5.8 -21.6°
Maximum altitude 03:13:33 22° 55° (NE) 1,243 4.2 -21.8°
Enters shadow 03:14:17 21° 70° (ENE) 1,280 4.1 -21.9°
